Onweer radar Meer informatie blitzortung!


Regen radar Meer informatie rain snow radar


Bezoek onze andere website:

Template documentation
and downloads

And another site



15 daagse weersverwachting Narvik (NO)

  • Overzicht
  • Per uur
  • 15 dagen
  • Extra
  • Vergelijk
  • Kaarten
  • Dagkaart
  • Meer »
  • Info
  • Statistieken
  • Directe link
    Temp 6h Neerslag Wind  
 05:16     20:28    Daglengte: 15:12 Vandaag
14:00
-1°
2.7 mm
5
warningclass
20:00
-2°
6.1 mm
4
warningclass
 05:12     20:32    Daglengte: 15:20 Morgen
02:00
-3°
3.7 mm
4
warningclass
08:00
-1°
4.6 mm
5
warningclass
14:00
2.2 mm
5
warningclass
20:00
-1°
 
3
 05:08     20:36    Daglengte: 15:28 Zondag 12 Apr
02:00
-2°
 
3
08:00
-2°
 
4
14:00
-1°
19.6 mm
4
warningclass
20:00
-2°
18.1 mm
4
warningclass
 05:03     20:40    Daglengte: 15:37 Maandag 13 Apr
02:00
-2°
25.1 mm
3
warningclass
08:00
-2°
15.7 mm
5
warningclass
Locatie info
Region: Nordland
Latitude: 68.4395°N
Longitude: 17.4301°E
100 masl
Postcode: 8514
Temp/Neerslag /Baro Onweer/DauwpuntSneeuw
    Temp Baro 1h Neerslag Dauwpunt Wind UV BewolkingSneeuw  
 05:16     20:28    Daglengte: 15:12 Vandaag
13:00
-1°
Voelt als: -6.0°
1011.5 hPa 1.6 mm
49%
-2.8°
5
Windvlaag: 7.7 m/s
89%15 cm warningclass
14:00
-1°
Voelt als: -5.8°
1011.8 hPa 1.1 mm
82%
-1.9°
5
Windvlaag: 8 m/s
87%15 cm warningclass
15:00
-1°
Voelt als: -5.8°
1012.3 hPa 1.2 mm
82%
-2.7°
5
Windvlaag: 6.9 m/s
83%17 cm warningclass
16:00
-1°
Voelt als: -6.1°
1012.7 hPa 1.3 mm
82%
-2.8°
6
Windvlaag: 7.6 m/s
83%17 cm warningclass
17:00
-1°
Voelt als: -5.5°
1013.3 hPa 1.2 mm
82%
-4.2°
4
Windvlaag: 7.6 m/s
75%17 cm warningclass
18:00
-1°
Voelt als: -6.4°
1013.9 hPa 1.3 mm
82%
-5.3°
5
Windvlaag: 6.9 m/s
76%17 cm warningclass
19:00
-1°
Voelt als: -5.8°
1014.8 hPa 1.1 mm
79%
-4.4°
4
Windvlaag: 6.9 m/s
54%17 cm warningclass
20:00
-2°
Voelt als: -6.3°
1015.3 hPa
81%
-4.9°
4
Windvlaag: 4 m/s
67%18 cm
21:00
-2°
Voelt als: -6.8°
1015.8 hPa
81%
-4.7°
4
Windvlaag: 5.4 m/s
76%19 cm
22:00
-2°
Voelt als: -7.0°
1016.3 hPa
80%
-4.2°
4
Windvlaag: 6.2 m/s
65%19 cm
23:00
-2°
Voelt als: -7.2°
1016.6 hPa
80%
-4.5°
4
Windvlaag: 5.6 m/s
55%19 cm
 05:12     20:32    Daglengte: 15:20 Morgen
00:00
-3°
Voelt als: -7.7°
1016.9 hPa
80%
-5.0°
4
Windvlaag: 5.3 m/s
65%19 cm
01:00
-3°
Voelt als: -8.1°
1017.5 hPa 1.8 mm
79%
-4.6°
5
Windvlaag: 6.2 m/s
64%19 cm warningclass
02:00
-3°
Voelt als: -7.4°
1017.8 hPa 1.9 mm
78%
-4.4°
4
Windvlaag: 6.5 m/s
73%19 cm warningclass
03:00
-2°
Voelt als: -7.5°
1018.0 hPa
79%
-4.5°
4
Windvlaag: 6.2 m/s
76%19 cm
04:00
-2°
Voelt als: -7.3°
1017.8 hPa
71%
-4.4°
4
Windvlaag: 6.7 m/s
68%19 cm
05:00
-2°
Voelt als: -7.2°
1017.9 hPa
29%
-5.0°
4
Windvlaag: 5.1 m/s
86%19 cm
06:00
-2°
Voelt als: -7.1°
1017.8 hPa 2.6 mm
76%
-3.7°
5
Windvlaag: 5.7 m/s
79%20 cm warningclass
07:00
-2°
Voelt als: -7.0°
1017.6 hPa
82%
-3.0°
4
Windvlaag: 6.1 m/s
80%20 cm
08:00
-1°
Voelt als: -6.5°
1017.6 hPa 2.0 mm
82%
-3.3°
5
Windvlaag: 5.6 m/s
87%20 cm warningclass
09:00
-1°
Voelt als: -6.4°
1017.7 hPa
82%
-3.1°
6
Windvlaag: 7.8 m/s
86%20 cm
10:00
-1°
Voelt als: -6.0°
1017.9 hPa 2.2 mm
82%
-3.0°
6
Windvlaag: 7.5 m/s
82%20 cm warningclass
11:00
-0°
Voelt als: -5.6°
1018.1 hPa
79%
-3.3°
6
Windvlaag: 7.7 m/s
74%20 cm
12:00
Voelt als: -4.9°
1018.0 hPa
77%
-3.4°
5
Windvlaag: 6.6 m/s
65%19 cm
13:00
Voelt als: -4.5°
1017.7 hPa
71%
-3.3°
5
Windvlaag: 6.5 m/s
72%19 cm
14:00
Voelt als: -4.5°
1017.4 hPa
69%
-3.0°
5
Windvlaag: 6.2 m/s
78%19 cm
15:00
Voelt als: -4.2°
1017.0 hPa
74%
-3.5°
5
Windvlaag: 5.7 m/s
80%19 cm
16:00
Voelt als: -4.0°
1016.5 hPa
81%
-3.3°
4
Windvlaag: 5.2 m/s
76%18 cm
17:00
Voelt als: -3.4°
1016.0 hPa
80%
-2.2°
3
Windvlaag: 5.1 m/s
77%18 cm
18:00
-0°
Voelt als: -3.2°
1015.3 hPa
81%
-2.7°
2
Windvlaag: 3.5 m/s
78%18 cm
19:00
-0°
Voelt als: -3.7°
1014.5 hPa
82%
-3.5°
3
Windvlaag: 3.8 m/s
73%18 cm
20:00
-1°
Voelt als: -4.7°
1013.6 hPa
82%
-4.4°
3
Windvlaag: 4.1 m/s
87%18 cm
21:00
-1°
Voelt als: -5.5°
1013.1 hPa
82%
-5.4°
3
Windvlaag: 4.7 m/s
84%18 cm
22:00
-2°
Voelt als: -6.2°
1012.3 hPa
30%
-6.6°
4
Windvlaag: 5.4 m/s
85%18 cm
23:00
-2°
Voelt als: -5.9°
1011.2 hPa
17%
-6.9°
3
Windvlaag: 5.3 m/s
84%18 cm
 05:08     20:36    Daglengte: 15:28 Zondag 12 Apr
00:00
-2°
Voelt als: -5.4°
1010.0 hPa
14%
-6.9°
3
Windvlaag: 5.1 m/s
81%18 cm
01:00
-2°
Voelt als: -5.6°
1008.6 hPa
14%
-7.3°
3
Windvlaag: 4.3 m/s
80%18 cm
02:00
-2°
Voelt als: -5.5°
1007.3 hPa
14%
-7.5°
3
Windvlaag: 4.5 m/s
81%18 cm
03:00
-2°
Voelt als: -5.6°
1005.6 hPa
14%
-7.6°
3
Windvlaag: 4.3 m/s
81%18 cm
04:00
-2°
Voelt als: -5.8°
1004.0 hPa
14%
-7.1°
3
Windvlaag: 5.3 m/s
81%18 cm
05:00
-3°
Voelt als: -7.6°
1001.0 hPa
21%
-8.8°
4
Windvlaag: 5.8 m/s
88%18 cm
06:00
-2°
Voelt als: -7.3°
999.7 hPa
21%
-8.2°
4
Windvlaag: 5.8 m/s
88%18 cm
07:00
-2°
Voelt als: -6.2°
998.7 hPa
21%
-7.1°
3
Windvlaag: 6.1 m/s
88%18 cm
08:00
-2°
Voelt als: -6.5°
997.7 hPa
21%
-6.2°
4
Windvlaag: 7.3 m/s
88%18 cm
09:00
-2°
Voelt als: -7.4°
996.7 hPa 2.8 mm
21%
-6.2°
5
Windvlaag: 7.7 m/s
88%18 cm warningclass
10:00
-2°
Voelt als: -7.2°
995.5 hPa 3.0 mm
21%
-5.9°
5
Windvlaag: 7.1 m/s
88%19 cm warningclass
11:00
-1°
Voelt als: -6.2°
994.5 hPa 3.3 mm
22%
-5.6°
4
Windvlaag: 6.3 m/s
100%20 cm warningclass
12:00
-1°
Voelt als: -5.5°
993.6 hPa 3.4 mm
25%
-5.4°
4
Windvlaag: 6.1 m/s
100%21 cm warningclass
13:00
-1°
Voelt als: -5.5°
992.8 hPa 3.5 mm
30%
-5.1°
4
Windvlaag: 6.6 m/s
100%21 cm warningclass
14:00
-1°
Voelt als: -5.5°
992.4 hPa 3.5 mm
33%
-5.1°
4
Windvlaag: 6.5 m/s
100%20 cm warningclass
15:00
-1°
Voelt als: -5.9°
992.1 hPa
38%
-5.2°
4
Windvlaag: 6.1 m/s
99%20 cm
16:00
-1°
Voelt als: -5.9°
992.1 hPa 3.5 mm
38%
-5.4°
4
Windvlaag: 5.7 m/s
98%20 cm warningclass
17:00
-1°
Voelt als: -5.8°
992.1 hPa 3.6 mm
33%
-5.4°
4
Windvlaag: 5.2 m/s
98%20 cm warningclass
18:00
-2°
Voelt als: -5.7°
992.3 hPa 3.6 mm
30%
-5.3°
3
Windvlaag: 5.5 m/s
99%20 cm warningclass
19:00
-2°
Voelt als: -6.6°
992.6 hPa 3.7 mm
28%
-4.8°
4
Windvlaag: 5.9 m/s
99%20 cm warningclass
20:00
-2°
Voelt als: -7.3°
993.1 hPa 3.7 mm
35%
-4.8°
4
Windvlaag: 7.3 m/s
99%20 cm warningclass
21:00
-2°
Voelt als: -6.9°
993.6 hPa 5.8 mm
46%
-4.3°
4
Windvlaag: 1.1 m/s
98%20 cm warningclass
22:00
-2°
Voelt als: -6.3°
994.0 hPa 5.8 mm
52%
-3.8°
4
Windvlaag: 0.7 m/s
96%20 cm warningclass
23:00
-2°
Voelt als: -6.0°
994.1 hPa
100%
-3.6°
3
Windvlaag: 2.4 m/s
97%20 cm
 05:03     20:40    Daglengte: 15:37 Maandag 13 Apr
00:00
-2°
Voelt als: -6.4°
994.2 hPa 3.8 mm
100%
-3.7°
3
Windvlaag: 3.2 m/s
98%20 cm warningclass
01:00
-2°
Voelt als: -6.5°
994.2 hPa 3.6 mm
84%
-3.2°
4
Windvlaag: 2.8 m/s
99%20 cm warningclass
02:00
-2°
Voelt als: -5.8°
994.6 hPa 6.0 mm
40%
-3.0°
3
Windvlaag: 1.2 m/s
97%20 cm warningclass
03:00
-1°
Voelt als: -5.2°
997.5 hPa
39%
-2.3°
4
Windvlaag: 17.8 m/s
84%21 cm warningclass
04:00
-1°
Voelt als: -5.8°
998.0 hPa
85%
-2.5°
4
Windvlaag: 18.8 m/s
83%22 cm warningclass
05:00
-1°
Voelt als: -6.2°
998.7 hPa
95%
-2.7°
5
Windvlaag: 19 m/s
92%23 cm warningclass
06:00
-1°
Voelt als: -6.6°
999.4 hPa 7.7 mm
100%
-2.9°
5
Windvlaag: 20.3 m/s
94%24 cm warningclass
07:00
-1°
Voelt als: -6.6°
1000.2 hPa 8.0 mm
90%
-2.9°
5
Windvlaag: 18.6 m/s
83%25 cm warningclass
08:00
-2°
Voelt als: -7.0°
1001.2 hPa
94%
-3.4°
5
Windvlaag: 2.1 m/s
75%26 cm
09:00
-1°
Voelt als: -6.7°
1002.1 hPa 8.1 mm
95%
-3.5°
6
Windvlaag: 10.6 m/s
69%26 cm warningclass
10:00
-1°
Voelt als: -6.3°
1003.0 hPa 8.2 mm
95%
-3.2°
6
Windvlaag: 15.3 m/s
59%26 cm warningclass
11:00
-0°
Voelt als: -6.1°
1003.7 hPa 8.2 mm
95%
-3.0°
7
Windvlaag: 15.2 m/s
79%26 cm warningclass
12:00
Voelt als: -5.8°
1004.4 hPa 8.2 mm
93%
-3.0°
7
Windvlaag: 13.5 m/s
67%26 cm warningclass
Temp/Neerslag /Baro Onweer/DauwpuntSneeuw
    Temp Baro Neerslag Dauwpunt Wind BewolkingSneeuw  
 05:16     20:28    Daglengte: 15:12 Vandaag
14:00
-1°
Voelt als: -5.8°
1011.8 hPa 2.7 mm -1.9°
5
87%15 cm warningclass
17:00
-1°
Voelt als: -5.5°
1013.3 hPa 3.7 mm -4.2°
4
75%17 cm warningclass
20:00
-2°
Voelt als: -6.3°
1015.3 hPa 2.4 mm -4.9°
4
67%18 cm warningclass
23:00
-2°
Voelt als: -7.2°
1016.6 hPa   -4.5°
4
55%19 cm
 05:12     20:32    Daglengte: 15:20 Morgen
02:00
-3°
Voelt als: -7.4°
1017.8 hPa 3.7 mm -4.4°
4
73%19 cm warningclass
05:00
-2°
Voelt als: -7.2°
1017.9 hPa   -5.0°
4
86%19 cm
08:00
-1°
Voelt als: -6.5°
1017.6 hPa 4.6 mm -3.3°
5
87%20 cm warningclass
11:00
-0°
Voelt als: -5.6°
1018.1 hPa 2.2 mm -3.3°
6
74%20 cm warningclass
14:00
Voelt als: -4.5°
1017.4 hPa   -3.0°
5
78%19 cm
17:00
Voelt als: -3.4°
1016.0 hPa   -2.2°
3
77%18 cm
20:00
-1°
Voelt als: -4.7°
1013.6 hPa   -4.4°
3
87%18 cm
23:00
-2°
Voelt als: -5.9°
1011.2 hPa   -6.9°
3
84%18 cm
 05:08     20:36    Daglengte: 15:28 Zondag 12 Apr
02:00
-2°
Voelt als: -5.5°
1007.3 hPa   -7.5°
3
81%18 cm
05:00
-3°
Voelt als: -7.6°
1001.0 hPa   -8.8°
4
88%18 cm
08:00
-2°
Voelt als: -6.5°
997.7 hPa   -6.2°
4
88%18 cm
11:00
-1°
Voelt als: -6.2°
994.5 hPa 9.0 mm -5.6°
4
100%20 cm warningclass
14:00
-1°
Voelt als: -5.5°
992.4 hPa 10.5 mm -5.1°
4
100%20 cm warningclass
17:00
-1°
Voelt als: -5.8°
992.1 hPa 7.1 mm -5.4°
4
98%20 cm warningclass
20:00
-2°
Voelt als: -7.3°
993.1 hPa 11.0 mm -4.8°
4
99%20 cm warningclass
23:00
-2°
Voelt als: -6.0°
994.1 hPa 11.6 mm -3.6°
3
97%20 cm warningclass
 05:03     20:40    Daglengte: 15:37 Maandag 13 Apr
02:00
-2°
Voelt als: -5.8°
994.6 hPa 13.4 mm -3.0°
3
97%20 cm warningclass
05:00
-1°
Voelt als: -6.2°
998.7 hPa   -2.7°
5
92%23 cm warningclass
08:00
-2°
Voelt als: -7.0°
1001.2 hPa 15.7 mm -3.4°
5
75%26 cm warningclass
11:00
-0°
Voelt als: -6.1°
1003.7 hPa 24.6 mm -3.0°
7
79%26 cm warningclass
14:00
Voelt als: -5.6°
1006.1 hPa 24.5 mm -2.5°
8
71%25 cm warningclass
17:00
Voelt als: -3.7°
1007.6 hPa 25.3 mm -1.5°
6
62%
20:00
Voelt als: -3.6°
1009.5 hPa 25.7 mm -1.6°
4
61%
23:00
Voelt als: -3.0°
1010.3 hPa 25.8 mm -1.6°
3
74%
 04:59     20:44    Daglengte: 15:45 Dinsdag 14 Apr
02:00
-0°
Voelt als: -1.3°
1011.1 hPa 26.0 mm -1.4°
1
87%
05:00
-0°
Voelt als: -1.4°
1010.2 hPa 26.2 mm -1.3°
1
89%
08:00
Voelt als: -1.5°
1009.1 hPa 26.4 mm -1.1°
1
92%
11:00
Voelt als: -2.2°
1005.3 hPa 26.4 mm -1.6°
3
92%
14:00
Voelt als: -2.2°
1001.4 hPa 26.5 mm -2.3°
4
92%
17:00
Voelt als: -2.2°
999.2 hPa 26.7 mm -1.5°
4
92%
20:00
Voelt als: -2.2°
997.2 hPa 27.7 mm -0.8°
4
92%
23:00
Voelt als: -1.5°
995.2 hPa 28.1 mm -0.1°
3
92%
 04:54     20:48    Daglengte: 15:54 Woensdag 15 Apr
02:00
Voelt als: -0.7°
993.3 hPa 29.1 mm 0.7°
3
92%
05:00
Voelt als: -1.1°
991.9 hPa 29.8 mm 1.2°
4
92%
08:00
Voelt als: -1.2°
990.5 hPa 30.6 mm 1.6°
4
92%
11:00
Voelt als: -1.0°
989.7 hPa 31.1 mm 2.4°
6
92%
14:00
Voelt als: -0.4°
988.9 hPa 31.2 mm 3.3°
7
92%
17:00
Voelt als: -1.1°
988.6 hPa 33.5 mm 2.9°
8
92%
20:00
Voelt als: -1.8°
988.2 hPa 35.0 mm 2.6°
9
92%
23:00
Voelt als: -2.0°
990.0 hPa 36.0 mm 2.0°
7
91%
 04:50     20:52    Daglengte: 16:02 Donderdag 16 Apr
02:00
Voelt als: -2.1°
991.7 hPa 37.9 mm 1.4°
6
91%
05:00
Voelt als: -3.0°
991.6 hPa 38.4 mm 0.9°
7
90%
08:00
Voelt als: -3.8°
991.3 hPa 38.4 mm 0.4°
8
90%
11:00
Voelt als: -3.0°
993.0 hPa 38.4 mm 1.0°
8
90%
14:00
Voelt als: -2.4°
994.8 hPa 39.1 mm 1.4°
8
89%
17:00
Voelt als: -3.1°
997.9 hPa 45.1 mm 1.1°
9
81%
20:00
Voelt als: -3.8°
1000.9 hPa 46.6 mm 0.6°
9
72%
23:00
Voelt als: -3.4°
1003.5 hPa 49.9 mm 0.6°
7
81%
 04:45     20:56    Daglengte: 16:11 Vrijdag 17 Apr
02:00
Voelt als: -2.8°
1006.2 hPa 52.7 mm 0.3°
5
89%
05:00
Voelt als: -3.2°
1007.0 hPa 53.4 mm 0.0°
5
90%
08:00
Voelt als: -3.4°
1007.6 hPa 53.8 mm -0.1°
6
92%
11:00
Voelt als: -2.2°
1008.8 hPa   0.6°
6
92%
14:00
Voelt als: -1.1°
1009.8 hPa 107.9 mm 1.4°
6
92%
20:00
Voelt als: -1.4°
1010.1 hPa 108.0 mm 1.6°
6
92%
 04:41     21:00    Daglengte: 16:19 Zaterdag 18 Apr
02:00
Voelt als: 0.2°
1007.5 hPa 108.0 mm 2.2°
4
92%
08:00
Voelt als: -1.0°
1007.4 hPa 108.0 mm 2.3°
8
92%
14:00
Voelt als: 0.6°
1009.8 hPa 108.0 mm 3.7°
7
92%
20:00
Voelt als: 0.5°
1007.7 hPa 108.0 mm 2.9°
6
92%
 04:36     21:05    Daglengte: 16:29 Zondag 19 Apr
02:00
Voelt als: 1.9°
1006.7 hPa 108.0 mm 3.9°
5
92%
08:00
Voelt als: 0.0°
1006.5 hPa 108.4 mm 3.6°
8
92%
14:00
Voelt als: 2.1°
1020.5 hPa 111.1 mm 3.3°
5
92%
20:00
Voelt als: -0.4°
1012.6 hPa 111.7 mm 3.4°
8
92%
 04:32     21:09    Daglengte: 16:37 Maandag 20 Apr
02:00
Voelt als: -1.3°
1032.5 hPa 111.7 mm -1.5°
1
1%
08:00
Voelt als: -0.7°
1011.6 hPa 1.2 mm 1.9°
4
67%
14:00
Voelt als: -0.0°
1012.8 hPa 1.7 mm 3.2°
4
82%
20:00
Voelt als: -0.8°
1014.4 hPa 1.4 mm 1.6°
3
87%
 04:27     21:13    Daglengte: 16:46 Dinsdag 21 Apr
02:00
Voelt als: -1.9°
1015.2 hPa 1.4 mm 0.2°
3
78%
08:00
Voelt als: -1.5°
1014.9 hPa 1.2 mm 0.3°
3
72%
14:00
Voelt als: -0.8°
1014.0 hPa 1.3 mm 2.0°
4
77%
20:00
Voelt als: -2.8°
1013.2 hPa 1.6 mm -0.3°
4
78%
 04:22     21:17    Daglengte: 16:55 Woensdag 22 Apr
02:00
-0°
Voelt als: -4.2°
1012.5 hPa 1.3 mm -1.7°
3
68%
08:00
Voelt als: -1.7°
1012.3 hPa 1.5 mm 0.2°
3
76%
14:00
Voelt als: -0.4°
1012.9 hPa 1.8 mm 1.6°
3
78%
20:00
Voelt als: -2.5°
1012.4 hPa 1.8 mm -0.4°
3
74%
 04:18     21:22    Daglengte: 17:04 Donderdag 23 Apr
02:00
-0°
Voelt als: -3.5°
1012.0 hPa 1.1 mm -1.4°
3
70%
08:00
Voelt als: -2.1°
1010.8 hPa 1.4 mm -0.7°
2
75%
14:00
Voelt als: 0.4°
1010.0 hPa 1.6 mm 1.4°
2
60%
20:00
Voelt als: -0.6°
1009.4 hPa 1.2 mm -0.3°
2
65%
 04:13     21:26    Daglengte: 17:13 Vrijdag 24 Apr
02:00
-1°
Voelt als: -3.3°
1009.8 hPa 1.2 mm -1.9°
2
65%
08:00
Voelt als: -2.1°
1009.2 hPa 1.2 mm -0.8°
3
67%
14:00
Voelt als: -0.4°
1009.7 hPa 1.1 mm 0.6°
3
68%
20:00
Voelt als: -1.4°
1009.8 hPa 1.2 mm -1.0°
2
71%
 04:09     21:30    Daglengte: 17:21 Zaterdag 25 Apr
02:00
-1°
Voelt als: -3.8°
1009.7 hPa 1.3 mm -2.4°
2
66%
08:00
Voelt als: -2.0°
1008.5 hPa 1.1 mm -1.0°
2
69%
  CAPE Lifted Index Hail Supercell Tornado SRH 3km CL BTM PRES CL TOP PRES Swiss DWD icon SMHI TS
 05:16     20:28    Daglengte: 15:12 Vandaag
13:00 54 J/kg 4.8 K 0 % 0 % 0 % 0 m²/s² 0 0 5.58 86
14:00 79 J/kg 4.2 K 0 % 0 % 0 % 0 m²/s² 0 0 4.92 85
15:00 59 J/kg 4.3 K 0 % 0 % 0 % 0 m²/s² 0 0 5.02 85
16:00 18 J/kg 5.2 K 0 % 0 % 0 % 0 m²/s² 0 0 6.04 85
17:00 98 J/kg 5.0 K 0 % 0 % 0 % 0 m²/s² 0 0 5.78 85
18:00 41 J/kg 5.7 K 0 % 0 % 0 % 0 m²/s² 0 0 6.75 85
19:00 48 J/kg 6.0 K 0 % 0 % 0 % 0 m²/s² 0 0 6.99 85
20:00 24 J/kg 6.1 K 0 % 0 % 0 % 0 m²/s² 0 0 6.88 85
21:00 30 J/kg 6.3 K 0 % 0 % 0 % 0 m²/s² 0 0 7.62 85
22:00 19 J/kg 7.3 K 0 % 0 % 0 % 0 m²/s² 0 0 8.17 85
23:00 0 J/kg 7.6 K 0 % 0 % 0 % 0 m²/s² 0 0 8.68 85
 05:12     20:32    Daglengte: 15:20 Morgen
00:00 0 J/kg 7.8 K 0 % 0 % 0 % 0 m²/s² 0 0 9.12 85
01:00 0 J/kg 8.3 K 0 % 0 % 0 % 0 m²/s² 0 0 9.71 85
02:00 0 J/kg 9.0 K 0 % 0 % 0 % 0 m²/s² 0 0 10.14 85
03:00 0 J/kg 9.3 K 0 % 0 % 0 % 0 m²/s² 0 0 10.44 3
04:00 0 J/kg 10.0 K 0 % 0 % 0 % 0 m²/s² 0 0 11.02 3
05:00 0 J/kg 9.4 K 0 % 0 % 0 % 0 m²/s² 0 0 10.87 3
06:00 2 J/kg 9.9 K 0 % 0 % 0 % 0 m²/s² 0 0 11.76 3
07:00 0 J/kg 10.3 K 0 % 0 % 0 % 0 m²/s² 0 0 11.95 3
08:00 0 J/kg 10.5 K 0 % 0 % 0 % 0 m²/s² 0 0 12 85
09:00 8 J/kg 9.6 K 0 % 0 % 0 % 0 m²/s² 0 0 11.58 3
10:00 48 J/kg 9.1 K 0 % 0 % 0 % 0 m²/s² 0 0 10.6 85
11:00 60 J/kg 9.1 K 0 % 0 % 0 % 0 m²/s² 0 0 11.35 85
12:00 47 J/kg 9.1 K 0 % 0 % 0 % 0 m²/s² 0 0 11.5 85
13:00 45 J/kg 9.2 K 0 % 0 % 0 % 0 m²/s² 0 0 11.51 85
14:00 58 J/kg 9.7 K 0 % 0 % 0 % 0 m²/s² 0 0 12.37 85
15:00 47 J/kg 10.6 K 0 % 0 % 0 % 0 m²/s² 0 0 13.66 3
16:00 36 J/kg 10.9 K 0 % 0 % 0 % 0 m²/s² 0 0 14.29 3
17:00 27 J/kg 10.9 K 0 % 0 % 0 % 0 m²/s² 0 0 14.77 3
18:00 12 J/kg 11.1 K 0 % 0 % 0 % 0 m²/s² 0 0 15.18 3
19:00 0 J/kg 11.6 K 0 % 0 % 0 % 0 m²/s² 0 0 15.68 71
20:00 0 J/kg 12.1 K 0 % 0 % 0 % 0 m²/s² 0 0 16.27 71
21:00 0 J/kg 12.0 K 0 % 0 % 0 % 0 m²/s² 0 0 16.05 71
22:00 0 J/kg 11.9 K 0 % 0 % 0 % 0 m²/s² 0 0 15.98 3
23:00 0 J/kg 11.8 K 0 % 0 % 0 % 0 m²/s² 0 0 15.79 3
 05:08     20:36    Daglengte: 15:28 Zondag 12 Apr
00:00 0 J/kg 11.2 K 0 % 0 % 0 % 0 m²/s² 0 0 14.98 2
01:00 0 J/kg 11.0 K 0 % 0 % 0 % 0 m²/s² 0 0 14.33 1
02:00 0 J/kg 11.0 K 0 % 0 % 0 % 0 m²/s² 0 0 12.23 1
03:00 0 J/kg 10.4 K 0 % 0 % 0 % 0 m²/s² 0 0 11.15 0
04:00 0 J/kg 9.5 K 0 % 0 % 0 % 0 m²/s² 0 0 10.22 0
05:00 0 J/kg 8.9 K 0 % 0 % 0 % 0 m²/s² 0 0 9.62 0
06:00 0 J/kg 8.4 K 0 % 0 % 0 % 0 m²/s² 0 0 9.12 0
07:00 0 J/kg 8.3 K 0 % 0 % 0 % 0 m²/s² 0 0 9.02 0
08:00 0 J/kg 7.7 K 0 % 0 % 0 % 0 m²/s² 0 0 8.42 0
09:00 0 J/kg 8.0 K 0 % 0 % 0 % 0 m²/s² 0 0 8.69 0
10:00 0 J/kg 8.1 K 0 % 0 % 0 % 0 m²/s² 0 0 8.85 0
11:00 3 J/kg 8.1 K 0 % 0 % 0 % 0 m²/s² 0 0 8.88 3
12:00 3 J/kg 7.6 K 0 % 0 % 0 % 0 m²/s² 0 0 8.35 3
13:00 2 J/kg 7.1 K 0 % 0 % 0 % 0 m²/s² 0 0 7.85 3
14:00 1 J/kg 6.6 K 0 % 0 % 0 % 0 m²/s² 0 0 7.38 3
15:00 0 J/kg 6.0 K 0 % 0 % 0 % 0 m²/s² 0 0 6.78 3
16:00 0 J/kg 5.9 K 0 % 0 % 0 % 0 m²/s² 0 0 6.68 3
17:00 0 J/kg 5.6 K 0 % 0 % 0 % 0 m²/s² 0 0 6.29 3
18:00 0 J/kg 5.3 K 0 % 0 % 0 % 0 m²/s² 0 0 6.05 3
19:00 11 J/kg 5.0 K 0 % 0 % 0 % 0 m²/s² 0 0 5.81 3
20:00 0 J/kg 5.1 K 0 % 0 % 0 % 0 m²/s² 0 0 5.82 3
21:00 0 J/kg 5.5 K 0 % 0 % 0 % 0 m²/s² 0 0 6.22 3
22:00 0 J/kg 5.0 K 0 % 0 % 0 % 0 m²/s² 0 0 6.11 3
23:00 0 J/kg 5.0 K 0 % 0 % 0 % 0 m²/s² 0 0 6.11 85
 05:03     20:40    Daglengte: 15:37 Maandag 13 Apr
00:00 0 J/kg 4.8 K 0 % 0 % 0 % 0 m²/s² 0 0 5.94 85
01:00 0 J/kg 4.0 K 0 % 0 % 0 % 0 m²/s² 0 0 4.84 85
02:00 0 J/kg 3.8 K 0 % 0 % 0 % 0 m²/s² 0 0 4.76 3
03:00 0 J/kg 3.8 K 0 % 0 % 0 % 0 m²/s² 0 0 5.21 2
04:00 0 J/kg 4.4 K 0 % 0 % 0 % 0 m²/s² 0 0 5.54 85
05:00 0 J/kg 4.8 K 0 % 0 % 0 % 0 m²/s² 0 0 6.21 85
06:00 0 J/kg 5.0 K 0 % 0 % 0 % 0 m²/s² 0 0 6.32 85
07:00 0 J/kg 5.2 K 0 % 0 % 0 % 0 m²/s² 0 0 6.13 85
08:00 0 J/kg 6.8 K 0 % 0 % 0 % 0 m²/s² 0 0 8.21 85
09:00 0 J/kg 6.9 K 0 % 0 % 0 % 0 m²/s² 0 0 7.95 85
10:00 0 J/kg 6.4 K 0 % 0 % 0 % 0 m²/s² 0 0 7.42 85
11:00 1 J/kg 5.8 K 0 % 0 % 0 % 0 m²/s² 0 0 7 85
12:00 13 J/kg 5.5 K 0 % 0 % 0 % 0 m²/s² 0 0 7.18 85
Temp Baro Wind Neerslag
  EWN Forecast EWN WRFDA DWD ICON FMI HIRLAM MET Norway GFS
 05:16     20:28    Daglengte: 15:12 Vandaag
14:00 -0.8° 1011.8 hPa 4.8 m/s 2.7 mm -1.5° 1010.7 hPa 7.7 m/s 6.5 mm -1.1° 1012.2 hPa 4.3 m/s 0.1 mm -0.5° 1011.4 hPa 4.4 m/s 0.0 mm 0.3° 1011.7 hPa 6.0 m/s -1.4° 1012.9 hPa 4.2 m/s
17:00 -0.7° 1013.3 hPa 4.5 m/s 3.7 mm -1.4° 1012.2 hPa 7.0 m/s 17.6 mm -1.0° 1013.7 hPa 5.9 m/s 2.6 mm -0.6° 1012.9 hPa 5.5 m/s 0.0 mm 0.8° 1013.4 hPa 2.3 m/s -1.6° 1013.8 hPa 3.8 m/s
20:00 -1.6° 1015.3 hPa 4.0 m/s 2.4 mm -2.5° 1013.4 hPa 4.6 m/s 20.0 mm -1.6° 1015.4 hPa 4.7 m/s 1.3 mm -1.5° 1015.3 hPa 4.5 m/s 0.0 mm -0.9° 1015.4 hPa 3.6 m/s -3.1° 1015.3 hPa 2.9 m/s
23:00 -2.4° 1016.6 hPa 4.0 m/s 0.0 mm -4.2° 1014.9 hPa 3.6 m/s 25.3 mm -2.0° 1016.6 hPa 3.8 m/s 0.6 mm -2.4° 1016.4 hPa 4.6 m/s 0.0 mm -1.7° 1016.8 hPa 4.1 m/s -3.8° 1017.2 hPa 2.6 m/s
 05:12     20:32    Daglengte: 15:20 Morgen
02:00 -2.7° 1017.8 hPa 3.7 m/s 3.7 mm -6.8° 1016.4 hPa 3.5 m/s 25.4 mm -2.2° 1017.7 hPa 4.0 m/s 0.6 mm -2.6° 1017.6 hPa 4.8 m/s 0.0 mm -1.9° 1018.5 hPa 3.6 m/s -4.1° 1018.7 hPa 2.5 m/s
05:00 -2.2° 1017.9 hPa 4.4 m/s 0.0 mm -3.7° 1016.6 hPa 6.4 m/s 26.2 mm -2.1° 1018.3 hPa 4.2 m/s 0.1 mm -1.8° 1016.4 hPa 5.4 m/s 0.0 mm -1.8° 1018.6 hPa 4.2 m/s -3.8° 1019.1 hPa 3.2 m/s
08:00 -1.4° 1017.6 hPa 4.7 m/s 4.6 mm -2.9° 1016.6 hPa 4.8 m/s 28.0 mm -1.9° 1017.8 hPa 4.8 m/s 0.2 mm -0.4° 1015.2 hPa 6.1 m/s 0.0 mm -0.8° 1017.9 hPa 4.6 m/s -2.5° 1018.8 hPa 3.0 m/s
11:00 -0.2° 1018.1 hPa 5.9 m/s 2.2 mm -1.0° 1016.9 hPa 7.4 m/s 30.7 mm -0.8° 1018.5 hPa 4.1 m/s 0.6 mm 0.5° 1015.9 hPa 6.8 m/s 0.0 mm 1.0° 1018.3 hPa 6.2 m/s -1.2° 1019.0 hPa 3.7 m/s
14:00 0.4° 1017.4 hPa 5.2 m/s 0.0 mm -0.6° 1016.9 hPa 5.8 m/s 33.6 mm -0.0° 1017.8 hPa 4.2 m/s 0.6 mm 0.9° 1015.5 hPa 6.8 m/s 0.0 mm 1.7° 1017.4 hPa 5.3 m/s -0.3° 1019.0 hPa 3.2 m/s
17:00 0.1° 1016.0 hPa 3.1 m/s 0.0 mm -0.8° 1015.3 hPa 2.2 m/s 35.8 mm -0.0° 1015.8 hPa 2.0 m/s 0.5 mm 0.6° 1014.9 hPa 5.9 m/s 0.0 mm 0.6° 1016.1 hPa 3.8 m/s -0.5° 1017.2 hPa 1.6 m/s
20:00 -1.0° 1013.6 hPa 3.0 m/s 0.0 mm -4.6° 1012.4 hPa 2.6 m/s 37.0 mm -0.9° 1014.2 hPa 1.5 m/s 0.2 mm 0.0° 1013.4 hPa 5.0 m/s 0.0 mm -0.4° 1013.4 hPa 3.5 m/s -3.7° 1015.4 hPa 2.2 m/s
23:00 -1.8° 1011.2 hPa 3.3 m/s 0.0 mm -4.1° 1009.2 hPa 4.6 m/s 37.0 mm -1.2° 1011.3 hPa 1.7 m/s 0.1 mm -0.3° 1012.0 hPa 3.7 m/s 0.0 mm -1.4° 1010.4 hPa 3.5 m/s -5.7° 1012.8 hPa 3.4 m/s
 05:08     20:36    Daglengte: 15:28 Zondag 12 Apr
02:00 -2.0° 1007.3 hPa 2.6 m/s 0.0 mm -3.3° 1004.2 hPa 4.5 m/s 37.0 mm -2.1° 1007.8 hPa 2.3 m/s 0.0 mm -0.5° 1009.7 hPa 2.4 m/s 0.0 mm -1.3° 1005.9 hPa 3.1 m/s -5.9° 1009.9 hPa 3.4 m/s
05:00 -2.6° 1001.0 hPa 4.1 m/s 0.0 mm -2.7° 999.8 hPa 6.5 m/s 37.0 mm -2.8° 1004.5 hPa 2.6 m/s 0.0 mm -1.3° 1000.4 hPa 4.4 m/s -7.0° 1005.9 hPa 3.3 m/s
08:00 -1.9° 997.7 hPa 3.8 m/s 0.0 mm -1.8° 997.7 hPa 3.2 m/s 37.2 mm -2.4° 1001.4 hPa 2.8 m/s 0.0 mm -0.8° 995.2 hPa 7.5 m/s -5.2° 1002.8 hPa 2.8 m/s
11:00 -1.3° 994.5 hPa 4.4 m/s 9.0 mm -2.0° 995.8 hPa 4.6 m/s 43.1 mm -1.4° 999.2 hPa 2.7 m/s 0.0 mm -0.5° 991.1 hPa 6.2 m/s -3.2° 999.5 hPa 2.1 m/s
14:00 -0.9° 992.4 hPa 4.1 m/s 10.5 mm -1.4° 994.8 hPa 4.5 m/s 49.9 mm -0.8° 997.6 hPa 2.5 m/s 0.0 mm -0.5° 988.3 hPa 6.2 m/s -2.4° 998.3 hPa 1.5 m/s
17:00 -1.4° 992.1 hPa 3.8 m/s 7.1 mm -1.3° 994.6 hPa 4.3 m/s 50.8 mm -1.1° 997.7 hPa 1.6 m/s 0.0 mm -1.0° 987.7 hPa 5.7 m/s -2.3° 997.9 hPa 2.7 m/s
20:00 -2.3° 993.1 hPa 4.2 m/s 11.0 mm -2.8° 995.9 hPa 5.8 m/s 51.1 mm -1.1° 998.4 hPa 0.2 m/s 0.0 mm -2.2° 988.9 hPa 5.2 m/s -4.8° 999.0 hPa 2.0 m/s
23:00 -1.8° 994.1 hPa 3.4 m/s 11.6 mm -4.9° 998.2 hPa 6.0 m/s 51.4 mm -1.3° 999.9 hPa 1.6 m/s 0.0 mm -1.0° 990.8 hPa 3.6 m/s -4.1° 1001.6 hPa 2.0 m/s
 05:03     20:40    Daglengte: 15:37 Maandag 13 Apr
02:00 -1.8° 994.6 hPa 3.1 m/s 13.4 mm -3.6° 1000.1 hPa 6.4 m/s 51.7 mm -2.1° 1003.3 hPa 3.0 m/s 0.8 mm 0.3° 992.8 hPa 2.1 m/s -2.6° 1003.8 hPa 6.3 m/s
05:00 -1.2° 998.7 hPa 4.7 m/s 0.0 mm -3.0° 1001.2 hPa 15.5 m/s 59.7 mm -2.8° 1004.9 hPa 3.0 m/s 0.1 mm 0.5° 995.1 hPa 3.7 m/s -3.3° 1004.8 hPa 7.6 m/s
08:00 -1.5° 1001.2 hPa 5.3 m/s 15.7 mm -3.8° 1004.0 hPa 7.3 m/s 69.8 mm -3.7° 1007.6 hPa 4.3 m/s 0.7 mm 0.7° 997.4 hPa 5.2 m/s -2.8° 1007.1 hPa 7.2 m/s
11:00 -0.2° 1003.7 hPa 6.8 m/s 24.6 mm -1.0° 1006.3 hPa 10.1 m/s 72.1 mm -3.6° 1008.8 hPa 5.3 m/s 0.8 mm 1.5° 1000.4 hPa 6.7 m/s -0.8° 1008.7 hPa 5.4 m/s
14:00 0.6° 1006.1 hPa 8.2 m/s 24.5 mm 0.1° 1008.1 hPa 11.5 m/s 72.1 mm -3.3° 1010.3 hPa 5.8 m/s 0.8 mm 2.2° 1003.4 hPa 8.2 m/s -0.1° 1010.6 hPa 6.2 m/s
17:00 1.3° 1007.6 hPa 5.6 m/s 25.3 mm 1.4° 1007.1 hPa 5.7 m/s -0.2° 1012.3 hPa 5.2 m/s 25.3 mm
20:00 0.7° 1009.5 hPa 4.3 m/s 25.7 mm 1.0° 1009.0 hPa 4.4 m/s -2.1° 1014.8 hPa 3.7 m/s 25.7 mm
23:00 0.1° 1010.3 hPa 2.6 m/s 25.8 mm 0.5° 1009.8 hPa 2.8 m/s -4.0° 1016.2 hPa 1.0 m/s 25.8 mm
 04:59     20:44    Daglengte: 15:45 Dinsdag 14 Apr
02:00 -0.3° 1011.1 hPa 1.1 m/s 26.0 mm 0.0° 1010.6 hPa 1.1 m/s -3.8° 1016.7 hPa 0.6 m/s 26.0 mm
05:00 -0.2° 1010.2 hPa 1.2 m/s 26.2 mm 0.1° 1009.5 hPa 1.2 m/s -4.0° 1017.2 hPa 0.3 m/s 26.2 mm
08:00 0.1° 1009.1 hPa 1.4 m/s 26.4 mm 0.3° 1008.5 hPa 1.4 m/s -2.5° 1015.9 hPa 1.1 m/s 26.4 mm
11:00 0.9° 1005.3 hPa 2.7 m/s 26.4 mm 1.1° 1004.5 hPa 2.8 m/s -1.4° 1014.4 hPa 1.8 m/s 26.4 mm
14:00 1.7° 1001.4 hPa 4.0 m/s 26.5 mm 1.9° 1000.4 hPa 4.2 m/s -1.0° 1012.0 hPa 1.5 m/s 26.5 mm
17:00 1.7° 999.2 hPa 4.0 m/s 26.7 mm 1.9° 998.3 hPa 4.0 m/s -0.2° 1009.0 hPa 3.7 m/s 26.7 mm
20:00 1.6° 997.2 hPa 3.8 m/s 27.7 mm 1.8° 996.3 hPa 3.8 m/s -0.8° 1007.3 hPa 3.8 m/s 27.7 mm
23:00 1.7° 995.2 hPa 3.1 m/s 28.1 mm 2.0° 994.2 hPa 3.2 m/s -0.7° 1006.6 hPa 2.1 m/s 28.1 mm
 04:54     20:48    Daglengte: 15:54 Woensdag 15 Apr
02:00 2.0° 993.3 hPa 2.5 m/s 29.1 mm 2.1° 992.1 hPa 2.6 m/s 0.6° 1006.0 hPa 1.5 m/s 29.1 mm
05:00 2.4° 991.9 hPa 3.6 m/s 29.8 mm 2.4° 990.6 hPa 3.5 m/s 2.2° 1005.9 hPa 4.1 m/s 29.8 mm
08:00 2.6° 990.5 hPa 4.3 m/s 30.6 mm 2.7° 989.1 hPa 4.4 m/s 1.9° 1006.4 hPa 3.3 m/s 30.6 mm
11:00 3.5° 989.7 hPa 5.8 m/s 31.1 mm 3.6° 988.1 hPa 6.0 m/s 2.0° 1007.9 hPa 3.3 m/s 31.1 mm
14:00 4.3° 988.9 hPa 7.2 m/s 31.2 mm 4.5° 987.1 hPa 7.6 m/s 2.3° 1009.1 hPa 2.5 m/s 31.2 mm
17:00 4.0° 988.6 hPa 7.8 m/s 33.5 mm 4.1° 986.7 hPa 8.3 m/s 2.4° 1009.8 hPa 2.1 m/s 33.5 mm
20:00 3.7° 988.2 hPa 8.6 m/s 35.0 mm 3.7° 986.2 hPa 9.0 m/s 3.2° 1010.6 hPa 4.8 m/s 35.0 mm
23:00 3.1° 990.0 hPa 7.1 m/s 36.0 mm 3.0° 988.1 hPa 7.5 m/s 3.1° 1011.4 hPa 2.8 m/s 36.0 mm
 04:50     20:52    Daglengte: 16:02 Donderdag 16 Apr
02:00 2.5° 991.7 hPa 5.7 m/s 37.9 mm 2.4° 990.0 hPa 5.9 m/s 3.3° 1010.9 hPa 2.9 m/s 37.9 mm
05:00 2.2° 991.6 hPa 6.7 m/s 38.4 mm 2.1° 990.0 hPa 7.2 m/s 2.9° 1009.5 hPa 2.2 m/s 38.4 mm
08:00 1.9° 991.3 hPa 7.9 m/s 38.4 mm 1.8° 989.9 hPa 8.4 m/s 3.2° 1006.7 hPa 2.3 m/s 38.4 mm
11:00 2.5° 993.0 hPa 8.0 m/s 38.4 mm 2.5° 992.0 hPa 8.5 m/s 3.2° 1003.8 hPa 2.2 m/s 38.4 mm
14:00 3.1° 994.8 hPa 8.2 m/s 39.1 mm 3.1° 994.2 hPa 8.6 m/s 3.0° 1001.7 hPa 3.4 m/s 39.1 mm
17:00 2.6° 997.9 hPa 8.7 m/s 45.1 mm 2.7° 997.2 hPa 9.0 m/s 2.0° 1004.4 hPa 5.9 m/s 45.1 mm
20:00 2.2° 1000.9 hPa 9.1 m/s 46.6 mm 2.3° 1000.3 hPa 9.4 m/s 1.5° 1007.7 hPa 5.6 m/s 46.6 mm
23:00 1.9° 1003.5 hPa 7.0 m/s 49.9 mm 2.0° 1003.0 hPa 7.1 m/s 1.2° 1009.5 hPa 5.9 m/s 49.9 mm
 04:45     20:56    Daglengte: 16:11 Vrijdag 17 Apr
02:00 1.6° 1006.2 hPa 4.7 m/s 52.7 mm 1.7° 1005.7 hPa 4.7 m/s 0.1° 1011.9 hPa 4.8 m/s 52.7 mm
05:00 1.6° 1007.0 hPa 5.5 m/s 53.4 mm 1.8° 1006.2 hPa 5.6 m/s -0.5° 1015.3 hPa 3.8 m/s 53.4 mm
08:00 1.7° 1007.6 hPa 6.2 m/s 53.8 mm 1.8° 1006.7 hPa 6.5 m/s 0.4° 1017.9 hPa 3.1 m/s 53.8 mm
11:00 2.6° 1008.8 hPa 6.1 m/s 53.9 mm 2.6° 1007.8 hPa 6.4 m/s 1.5° 1019.8 hPa 2.6 m/s 53.9 mm
14:00 3.4° 1009.8 hPa 5.9 m/s 53.9 mm 3.5° 1008.8 hPa 6.3 m/s 2.1° 1020.7 hPa 1.7 m/s 53.9 mm
20:00 3.1° 1010.1 hPa 5.7 m/s 54.0 mm 3.2° 1009.0 hPa 6.1 m/s 1.9° 1021.8 hPa 1.8 m/s 54.0 mm
 04:41     21:00    Daglengte: 16:19 Zaterdag 18 Apr
02:00 3.6° 1007.5 hPa 3.8 m/s 54.0 mm 3.9° 1006.2 hPa 3.9 m/s 0.2° 1022.0 hPa 3.3 m/s 54.0 mm
08:00 4.0° 1007.4 hPa 7.6 m/s 54.0 mm 4.1° 1006.1 hPa 8.0 m/s 2.6° 1021.2 hPa 2.6 m/s 54.0 mm
14:00 5.1° 1009.8 hPa 6.9 m/s 54.0 mm 5.1° 1008.8 hPa 7.4 m/s 4.7° 1020.6 hPa 1.8 m/s 54.0 mm
20:00 4.7° 1007.7 hPa 6.2 m/s 54.0 mm 4.8° 1006.5 hPa 6.4 m/s 3.9° 1020.9 hPa 3.8 m/s 54.0 mm
 04:36     21:05    Daglengte: 16:29 Zondag 19 Apr
02:00 5.3° 1006.7 hPa 4.8 m/s 54.0 mm 5.5° 1005.4 hPa 4.9 m/s 3.5° 1020.9 hPa 3.6 m/s 54.0 mm
08:00 5.0° 1006.5 hPa 8.4 m/s 54.3 mm 5.0° 1005.1 hPa 8.9 m/s 4.8° 1021.7 hPa 3.2 m/s 54.3 mm
14:00 5.8° 1020.5 hPa 5.5 m/s 55.7 mm 6.0° 1019.9 hPa 5.7 m/s 3.2° 1027.3 hPa 3.1 m/s 55.7 mm
20:00 4.6° 1012.6 hPa 8.2 m/s 55.9 mm 4.8° 1010.9 hPa 8.8 m/s 2.4° 1030.7 hPa 1.5 m/s 55.9 mm
 04:32     21:09    Daglengte: 16:37 Maandag 20 Apr
02:00 0.3° 1032.5 hPa 1.4 m/s 55.9 mm 0.3° 1032.5 hPa 1.4 m/s 55.9 mm
08:00 2.7° 1011.6 hPa 3.6 m/s 1.2 mm
14:00 3.4° 1012.8 hPa 3.8 m/s 1.7 mm
20:00 2.5° 1014.4 hPa 3.4 m/s 1.4 mm
 04:27     21:13    Daglengte: 16:46 Dinsdag 21 Apr
02:00 1.2° 1015.2 hPa 2.9 m/s 1.4 mm
08:00 1.5° 1014.9 hPa 2.8 m/s 1.2 mm
14:00 2.7° 1014.0 hPa 3.9 m/s 1.3 mm
20:00 1.0° 1013.2 hPa 3.6 m/s 1.6 mm
 04:22     21:17    Daglengte: 16:55 Woensdag 22 Apr
02:00 -0.3° 1012.5 hPa 3.4 m/s 1.3 mm
08:00 1.4° 1012.3 hPa 2.8 m/s 1.5 mm
14:00 2.7° 1012.9 hPa 3.1 m/s 1.8 mm
20:00 0.9° 1012.4 hPa 3.2 m/s 1.8 mm
 04:18     21:22    Daglengte: 17:04 Donderdag 23 Apr
02:00 -0.3° 1012.0 hPa 2.7 m/s 1.1 mm
08:00 0.6° 1010.8 hPa 2.3 m/s 1.4 mm
14:00 2.8° 1010.0 hPa 2.3 m/s 1.6 mm
20:00 1.2° 1009.4 hPa 1.6 m/s 1.2 mm
 04:13     21:26    Daglengte: 17:13 Vrijdag 24 Apr
02:00 -0.7° 1009.8 hPa 2.0 m/s 1.2 mm
08:00 0.8° 1009.2 hPa 2.6 m/s 1.2 mm
14:00 2.4° 1009.7 hPa 2.7 m/s 1.1 mm
20:00 0.7° 1009.8 hPa 1.8 m/s 1.2 mm
 04:09     21:30    Daglengte: 17:21 Zaterdag 25 Apr
02:00 -0.9° 1009.7 hPa 2.2 m/s 1.3 mm
08:00 0.8° 1008.5 hPa 2.5 m/s 1.1 mm
FMI Hirlam - 7.5 km EWN WRFDA - 12 km DWD ICON - 7 km GFS - 25 km Basiskaart






























































Updatetijd (Europe/Amsterdam) Resolutie Lengte Stap
FMI Hirlam 07:30, 13:30, 19:30, 01:30 7.5 km 49h 1h
EWN WRFDA 11:45, 17:45, 23:45, 05:45 12 km 73h 1h
DWD ICON 05:45, 11:45, 17:45, 23:45 7 km 75h 1h
GFS 08:00, 14:00, 20:00, 02:00 25 km 237h 3h
30+ mm
25-30 mm
20-25 mm
15-20 mm
10-15 mm
6-10 mm
4-6 mm
2-4 mm
1-2 mm
0.5-1 mm
0.2-0.5 mm
0.1-0.2 mm
30+ mm
25-30 mm
20-25 mm
15-20 mm
10-15 mm
6-10 mm
4-6 mm
2-4 mm
1-2 mm
0.5-1 mm
0.2-0.5 mm
0.1-0.2 mm
Sneeuwval
Natte sneeuw
Hagel
Vorst
30+ mm
25-30 mm
20-25 mm
15-20 mm
10-15 mm
6-10 mm
4-6 mm
2-4 mm
1-2 mm
0.5-1 mm
0.2-0.5 mm
0.1-0.2 mm
Sneeuwval
Natte sneeuw
Hagel
Vorst
Onweer
50 mm
40 mm
30 mm
26 mm
22 mm
18 mm
14 mm
10 mm
9 mm
8 mm
7 mm
6 mm
5 mm
4.5 mm
4 mm
3.5 mm
3 mm
2.5 mm
2 mm
1.5 mm
1 mm
0.8 mm
0.6 mm
0.4 mm
0.2 mm
0.05 mm
35°
30°
25°
20°
15°
10°
-5°
-10°
-15°
-20°
-25°
-30°
-35°
33> m/s
29 m/s
25 m/s
21 m/s
17 m/s
14 m/s
11 m/s
8 m/s
5 m/s
3 m/s
0 m/s
2600 J/kg
2400 J/kg
2200 J/kg
2000 J/kg
1800 J/kg
1600 J/kg
1400 J/kg
1200 J/kg
1000 J/kg
800 J/kg
600 J/kg
400 J/kg
200 J/kg
70 dBZ
65 dBZ
60 dBZ
55 dBZ
50 dBZ
45 dBZ
40 dBZ
35 dBZ
30 dBZ
25 dBZ
20 dBZ
15 dBZ
10 dBZ
5 dBZ
-1 K
-2 K
-3 K
-4 K
-5 K
-6 K
-7 K
-8 K
-9 K
950 m²/s²
900 m²/s²
850 m²/s²
800 m²/s²
750 m²/s²
700 m²/s²
650 m²/s²
600 m²/s²
550 m²/s²
500 m²/s²
450 m²/s²
400 m²/s²
350 m²/s²
300 m²/s²
250 m²/s²
200 m²/s²
150 m²/s²
100 m²/s²
46 m/s
44 m/s
42 m/s
40 m/s
38 m/s
36 m/s
34 m/s
32 m/s
30 m/s
28 m/s
26 m/s
24 m/s
22 m/s
20 m/s
16 m/s
12 m/s
8 m/s
4 m/s
30 m/s
28 m/s
26 m/s
24 m/s
22 m/s
20 m/s
18 m/s
16 m/s
14 m/s
12 m/s
10 m/s
8 m/s
6 m/s
4 m/s
2 m/s
3.0
2.8
2.6
2.4
2.2
2.0
1.8
1.6
1.4
1.2
1.0
0.8
0.6
0.4
0.2
15
14
13
12
11
10
9
8
7
6
5
4
3
2
1
90%
80%
70%
60%
50%
40%
30%
20%
10%
42
40
38
36
34
32
30
28
26
24
22
20
18
16
14
12
90+ cm
80-90 cm
70-80 cm
60-70 cm
50-60 cm
40-50 cm
30-40 cm
20-30 cm
10-20 cm
1-10 cm
Sneeuwval
Natte sneeuw
Regen
>120 mm
115 mm
110 mm
105 mm
100 mm
95 mm
90 mm
85 mm
80 mm
75 mm
70 mm
65 mm
60 mm
55 mm
50 mm
45 mm
45 mm
40 mm
35 mm
30 mm
25 mm
20 mm
15 mm
10 mm
5 mm
0.1 mm
960 hPa
880 hPa
800 hPa
720 hPa
640 hPa
560 hPa
584 gpdm
568 gpdm
552 gpdm